FW9014 Weather Reports


Display with metric or nautical units.
time (UTC)temp
F
wind
direction
speed
MPH
gust
MPH
rain 1hr
in
rain 24hr
in
rain mn
in
humidity
%
barometer
mb
20260509071547 72 184 7.0 9.0 0.00 0.01 0.00 95 1010.8
20260509070048 72 178 6.0 9.0 0.00 0.01 0.00 95 1010.9
20260509064549 72 150 6.0 9.0 0.00 0.01 0.00 95 1010.8
20260509063049 71 176 7.0 12.0 0.00 0.01 0.00 95 1011.0
20260509061556 72 186 8.0 13.0 0.00 0.01 0.00 95 1010.9
20260509060105 71 173 8.0 11.0 0.00 0.01 0.00 94 1011.0
20260509054558 71 183 8.0 11.0 0.00 0.01 0.00 94 1011.1
20260509053054 72 169 9.0 11.0 0.00 0.01 0.00 94 1011.1
20260509051549 72 173 7.0 11.0 0.00 0.01 0.00 94 1011.3
20260509050055 71 163 8.0 11.0 0.00 0.01 0.00 94 1011.2
20260509044548 71 165 8.0 11.0 0.00 0.01 0.01 93 1011.1
20260509043049 72 157 6.0 11.0 0.00 0.01 0.01 93 1011.2
20260509041549 72 162 8.0 12.0 0.00 0.01 0.01 93 1011.3
20260509040124 72 171 10.0 16.0 0.00 0.01 0.01 93 1011.1
20260509034550 72 174 13.0 17.0 0.00 0.01 0.01 93 1011.0
20260509033047 72 171 12.0 16.0 0.00 0.01 0.01 92 1010.6
20260509031547 72 169 10.0 14.0 0.00 0.01 0.01 91 1010.7
20260509030051 72 165 10.0 14.0 0.00 0.01 0.01 91 1010.6
20260509024555 72 165 12.0 18.0 0.00 0.01 0.01 91 1010.2
20260509023047 73 166 13.0 18.0 0.00 0.01 0.01 90 1010.1
20260509021547 73 167 11.0 15.0 0.00 0.01 0.01 89 1010.1
20260509020049 73 128 3.0 11.0 0.00 0.01 0.01 87 1009.9
20260509014544 73 147 4.0 8.0 0.00 0.01 0.01 86 1010.1
20260509013059 74 163 4.0 8.0 0.00 0.01 0.01 86 1010.1
20260509011558 74 138 9.0 12.0 0.00 0.01 0.01 86 1009.8
20260509010049 74 155 8.0 13.0 0.00 0.01 0.01 86 1010.1
20260509004604 75 171 9.0 13.0 0.00 0.01 0.01 85 1010.0
20260509003053 75 117 5.0 13.0 0.00 0.01 0.01 85 1009.4
20260509001551 75 154 10.0 12.0 0.00 0.01 0.01 85 1009.9
20260509000049 75 167 9.0 12.0 0.00 0.01 0.01 85 1010.1
20260508234548 75 165 6.0 11.0 0.00 0.01 0.01 85 1010.1
20260508233047 75 157 4.0 9.0 0.00 0.01 0.01 85 1010.3
20260508231545 75 168 7.0 10.0 0.00 0.01 0.01 86 1010.1
20260508230053 75 169 7.0 11.0 0.00 0.01 0.01 87 1009.9
20260508224545 75 173 7.0 9.0 0.00 0.01 0.01 87 1010.0
20260508223055 75 165 8.0 11.0 0.00 0.01 0.01 87 1010.0
20260508221548 76 190 9.0 11.0 0.00 0.01 0.01 85 1010.1
20260508220049 76 206 3.0 5.0 0.00 0.01 0.01 83 1010.2
20260508214554 76 209 3.0 4.0 0.00 0.01 0.01 83 1010.3
20260508213044 75 0 0.0 0.0 0.00 0.01 0.01 85 1010.2
20260508211544 74 0 0.0 3.0 0.00 0.01 0.01 87 1010.3
20260508210051 73 296 3.0 7.0 0.00 0.01 0.01 87 1010.8
20260508204548 73 290 4.0 7.0 0.00 0.01 0.01 87 1010.8
20260508203048 73 293 3.0 8.0 0.00 0.01 0.01 87 1010.8
20260508201546 73 292 5.0 8.0 0.00 0.01 0.01 87 1010.9
20260508200046 73 306 6.0 8.0 0.01 0.01 0.01 88 1011.0
20260508194606 73 296 6.0 8.0 0.01 0.01 0.01 88 1011.1
20260508193103 72 280 5.0 8.0 0.01 0.01 0.01 89 1011.3
20260508191551 72 286 5.0 7.0 0.01 0.01 0.01 89 1011.4
20260508190047 71 311 5.0 8.0 0.00 0.00 0.00 90 1011.4
20260508184602 71 296 6.0 9.0 0.00 0.00 0.00 90 1011.7
20260508183053 71 277 8.0 10.0 0.00 0.00 0.00 90 1012.1
20260508181557 71 268 8.0 10.0 0.00 0.00 0.00 89 1012.2
20260508180049 71 278 6.0 9.0 0.00 0.00 0.00 89 1012.1
20260508174555 70 270 6.0 9.0 0.00 0.00 0.00 89 1012.3
20260508173045 70 300 5.0 9.0 0.00 0.00 0.00 88 1012.5
20260508171551 71 315 5.0 9.0 0.00 0.00 0.00 88 1012.7
20260508170049 70 334 5.0 8.0 0.00 0.00 0.00 88 1012.8
20260508164553 70 340 6.0 10.0 0.00 0.00 0.00 88 1013.0
20260508163049 69 324 4.0 8.0 0.00 0.00 0.00 87 1013.0
20260508161546 69 342 5.0 9.0 0.00 0.00 0.00 88 1013.2
20260508154557 69 360 4.0 9.0 0.00 0.00 0.00 87 1013.4
20260508153051 69 56 1.0 7.0 0.00 0.00 0.00 88 1013.3
20260508151553 67 172 4.0 10.0 0.00 0.00 0.00 90 1013.6
20260508150047 66 156 8.0 11.0 0.00 0.00 0.00 91 1013.9
20260508144550 65 169 9.0 13.0 0.00 0.00 0.00 92 1013.8
20260508143104 64 146 5.0 8.0 0.00 0.00 0.00 91 1014.2
20260508141601 64 104 0.0 2.0 0.00 0.00 0.00 91 1014.5
20260508140052 64 144 4.0 6.0 0.00 0.00 0.00 91 1014.8
20260508134548 64 0 1.0 15.0 0.00 0.01 0.00 90 1015.1
20260508133056 64 360 0.0 6.0 0.00 0.01 0.00 90 1015.2
20260508131546 64 39 2.0 9.0 0.00 0.01 0.00 89 1014.9
20260508130055 65 0 2.0 7.0 0.00 0.01 0.00 88 1014.2
20260508124551 65 67 0.0 6.0 0.00 0.01 0.00 86 1013.9
20260508123047 66 24 4.0 10.0 0.00 0.01 0.00 86 1014.3
20260508121601 65 0 0.0 2.0 0.00 0.01 0.00 85 1014.1
20260508120047 65 0 0.0 2.0 0.00 0.01 0.00 85 1013.5
20260508114549 65 0 0.0 3.0 0.00 0.01 0.00 85 1013.4
20260508113049 65 0 0.0 7.0 0.00 0.01 0.00 85 1013.1
20260508111547 65 153 1.0 4.0 0.00 0.01 0.00 85 1013.4
20260508110053 65 103 0.0 3.0 0.00 0.01 0.00 86 1013.5
20260508104545 65 45 1.0 5.0 0.00 0.01 0.00 85 1013.9
20260508103053 65 157 2.0 5.0 0.00 0.01 0.00 85 1014.2
20260508101548 64 46 0.0 3.0 0.00 0.01 0.00 85 1014.5
20260508100052 64 67 1.0 7.0 0.00 0.01 0.00 85 1014.2
20260508094600 64 0 1.0 8.0 0.00 0.01 0.00 85 1014.0
20260508093050 64 92 3.0 8.0 0.00 0.01 0.00 85 1013.9
20260508091545 64 52 0.0 4.0 0.00 0.01 0.00 85 1013.9
20260508090051 64 65 0.0 2.0 0.00 0.01 0.00 85 1014.1
20260508084550 64 0 1.0 4.0 0.00 0.01 0.00 85 1014.0
20260508083130 64 100 1.0 7.0 0.00 0.01 0.00 84 1014.1
20260508081553 64 84 2.0 6.0 0.00 0.01 0.00 84 1014.0
20260508080056 64 99 1.0 6.0 0.00 0.01 0.00 84 1013.9
20260508074550 64 65 1.0 7.0 0.00 0.01 0.00 85 1014.4
20260508073055 64 0 2.0 7.0 0.00 0.01 0.00 85 1014.7